owner,sensor,date,latitude,longitude,vertical_datum,sea_water_temperature,qcFlag 
LUMCON,ioos:station:LUMCON:101:1,2017-08-01T00:00:00Z,29.2533,-90.6633,1.0,30.29,2 
LUMCON,ioos:station:LUMCON:101:1,2017-08-01T00:15:00Z,29.2533,-90.6633,1.0,30.4,2 
LUMCON,ioos:station:LUMCON:101:1,2017-08-01T00:30:00Z,29.2533,-90.6633,1.0,30.37,2 
LUMCON,ioos:station:LUMCON:101:1,2017-08-01T00:45:00Z,29.2533,-90.6633,1.0,30.51,2 
LUMCON,ioos:station:LUMCON:101:1,2017-08-01T01:00:00Z,29.2533,-90.6633,1.0,30.28,2 
LUMCON,ioos:station:LUMCON:101:1,2017-08-01T01:15:00Z,29.2533,-90.6633,1.0,30.27,2 
LUMCON,ioos:station:LUMCON:101:1,2017-08-01T01:30:00Z,29.2533,-90.6633,1.0,30.4,2 
LUMCON,ioos:station:LUMCON:101:1,2017-08-01T01:45:00Z,29.2533,-90.6633,1.0,30.36,2 
LUMCON,ioos:station:LUMCON:101:1,2017-08-01T02:00:00Z,29.2533,-90.6633,1.0,30.49,2 
LUMCON,ioos:station:LUMCON:101:1,2017-08-01T02:15:00Z,29.2533,-90.6633,1.0,30.49,2 
LUMCON,ioos:station:LUMCON:101:1,2017-08-01T02:30:00Z,29.2533,-90.6633,1.0,30.43,2 
LUMCON,ioos:station:LUMCON:101:1,2017-08-01T02:45:00Z,29.2533,-90.6633,1.0,30.39,2 
LUMCON,ioos:station:LUMCON:101:1,2017-08-01T03:00:00Z,29.2533,-90.6633,1.0,30.36,2 
LUMCON,ioos:station:LUMCON:101:1,2017-08-01T03:15:00Z,29.2533,-90.6633,1.0,30.3,2 
LUMCON,ioos:station:LUMCON:101:1,2017-08-01T03:30:00Z,29.2533,-90.6633,1.0,30.31,2 
LUMCON,ioos:station:LUMCON:101:1,2017-08-01T03:45:00Z,29.2533,-90.6633,1.0,30.28,2 
LUMCON,ioos:station:LUMCON:101:1,2017-08-01T04:00:00Z,29.2533,-90.6633,1.0,30.26,2 
LUMCON,ioos:station:LUMCON:101:1,2017-08-01T04:15:00Z,29.2533,-90.6633,1.0,30.22,2 
LUMCON,ioos:station:LUMCON:101:1,2017-08-01T04:30:00Z,29.2533,-90.6633,1.0,30.16,2 
LUMCON,ioos:station:LUMCON:101:1,2017-08-01T04:45:00Z,29.2533,-90.6633,1.0,30.12,2 
LUMCON,ioos:station:LUMCON:101:1,2017-08-01T05:00:00Z,29.2533,-90.6633,1.0,30.05,2 
LUMCON,ioos:station:LUMCON:101:1,2017-08-01T05:15:00Z,29.2533,-90.6633,1.0,30.05,2 
LUMCON,ioos:station:LUMCON:101:1,2017-08-01T05:30:00Z,29.2533,-90.6633,1.0,29.96,2 
LUMCON,ioos:station:LUMCON:101:1,2017-08-01T05:45:00Z,29.2533,-90.6633,1.0,29.81,2 
LUMCON,ioos:station:LUMCON:101:1,2017-08-01T06:00:00Z,29.2533,-90.6633,1.0,29.76,2 
LUMCON,ioos:station:LUMCON:101:1,2017-08-01T06:15:00Z,29.2533,-90.6633,1.0,29.7,2 
LUMCON,ioos:station:LUMCON:101:1,2017-08-01T06:30:00Z,29.2533,-90.6633,1.0,29.59,2 
LUMCON,ioos:station:LUMCON:101:1,2017-08-01T06:45:00Z,29.2533,-90.6633,1.0,29.53,2 
LUMCON,ioos:station:LUMCON:101:1,2017-08-01T07:00:00Z,29.2533,-90.6633,1.0,29.47,2 
LUMCON,ioos:station:LUMCON:101:1,2017-08-01T07:15:00Z,29.2533,-90.6633,1.0,29.43,2 
LUMCON,ioos:station:LUMCON:101:1,2017-08-01T07:30:00Z,29.2533,-90.6633,1.0,29.39,2 
LUMCON,ioos:station:LUMCON:101:1,2017-08-01T07:45:00Z,29.2533,-90.6633,1.0,29.35,2 
LUMCON,ioos:station:LUMCON:101:1,2017-08-01T08:00:00Z,29.2533,-90.6633,1.0,29.31,2 
LUMCON,ioos:station:LUMCON:101:1,2017-08-01T08:15:00Z,29.2533,-90.6633,1.0,29.24,2 
LUMCON,ioos:station:LUMCON:101:1,2017-08-01T08:30:00Z,29.2533,-90.6633,1.0,29.2,2 
LUMCON,ioos:station:LUMCON:101:1,2017-08-01T08:45:00Z,29.2533,-90.6633,1.0,29.17,2 
LUMCON,ioos:station:LUMCON:101:1,2017-08-01T09:00:00Z,29.2533,-90.6633,1.0,29.1,2 
LUMCON,ioos:station:LUMCON:101:1,2017-08-01T09:15:00Z,29.2533,-90.6633,1.0,29.07,2 
LUMCON,ioos:station:LUMCON:101:1,2017-08-01T09:30:00Z,29.2533,-90.6633,1.0,29.04,2 
LUMCON,ioos:station:LUMCON:101:1,2017-08-01T09:45:00Z,29.2533,-90.6633,1.0,28.99,2 
LUMCON,ioos:station:LUMCON:101:1,2017-08-01T10:00:00Z,29.2533,-90.6633,1.0,28.95,2 
LUMCON,ioos:station:LUMCON:101:1,2017-08-01T10:15:00Z,29.2533,-90.6633,1.0,28.9,2 
LUMCON,ioos:station:LUMCON:101:1,2017-08-01T10:30:00Z,29.2533,-90.6633,1.0,28.86,2 
LUMCON,ioos:station:LUMCON:101:1,2017-08-01T10:45:00Z,29.2533,-90.6633,1.0,28.83,2 
LUMCON,ioos:station:LUMCON:101:1,2017-08-01T11:00:00Z,29.2533,-90.6633,1.0,28.78,2 
LUMCON,ioos:station:LUMCON:101:1,2017-08-01T11:15:00Z,29.2533,-90.6633,1.0,28.72,2 
LUMCON,ioos:station:LUMCON:101:1,2017-08-01T11:30:00Z,29.2533,-90.6633,1.0,28.72,2 
LUMCON,ioos:station:LUMCON:101:1,2017-08-01T11:45:00Z,29.2533,-90.6633,1.0,28.69,2 
LUMCON,ioos:station:LUMCON:101:1,2017-08-01T12:00:00Z,29.2533,-90.6633,1.0,28.64,2 
LUMCON,ioos:station:LUMCON:101:1,2017-08-01T12:15:00Z,29.2533,-90.6633,1.0,28.62,2 
LUMCON,ioos:station:LUMCON:101:1,2017-08-01T12:30:00Z,29.2533,-90.6633,1.0,28.6,2 
LUMCON,ioos:station:LUMCON:101:1,2017-08-01T12:45:00Z,29.2533,-90.6633,1.0,28.59,2 
LUMCON,ioos:station:LUMCON:101:1,2017-08-01T13:00:00Z,29.2533,-90.6633,1.0,28.59,2 
LUMCON,ioos:station:LUMCON:101:1,2017-08-01T13:15:00Z,29.2533,-90.6633,1.0,28.59,2 
LUMCON,ioos:station:LUMCON:101:1,2017-08-01T13:30:00Z,29.2533,-90.6633,1.0,28.6,2 
LUMCON,ioos:station:LUMCON:101:1,2017-08-01T13:45:00Z,29.2533,-90.6633,1.0,28.62,2 
LUMCON,ioos:station:LUMCON:101:1,2017-08-01T14:00:00Z,29.2533,-90.6633,1.0,28.62,2 
LUMCON,ioos:station:LUMCON:101:1,2017-08-01T14:15:00Z,29.2533,-90.6633,1.0,28.64,2 
LUMCON,ioos:station:LUMCON:101:1,2017-08-01T14:30:00Z,29.2533,-90.6633,1.0,28.66,2 
LUMCON,ioos:station:LUMCON:101:1,2017-08-01T14:45:00Z,29.2533,-90.6633,1.0,28.66,2 
LUMCON,ioos:station:LUMCON:101:1,2017-08-01T15:00:00Z,29.2533,-90.6633,1.0,28.66,2 
LUMCON,ioos:station:LUMCON:101:1,2017-08-01T15:15:00Z,29.2533,-90.6633,1.0,28.66,2 
LUMCON,ioos:station:LUMCON:101:1,2017-08-01T15:30:00Z,29.2533,-90.6633,1.0,28.69,2 
LUMCON,ioos:station:LUMCON:101:1,2017-08-01T15:45:00Z,29.2533,-90.6633,1.0,28.86,2 
LUMCON,ioos:station:LUMCON:101:1,2017-08-01T16:00:00Z,29.2533,-90.6633,1.0,29.01,2 
LUMCON,ioos:station:LUMCON:101:1,2017-08-01T16:15:00Z,29.2533,-90.6633,1.0,29.11,2 
LUMCON,ioos:station:LUMCON:101:1,2017-08-01T16:30:00Z,29.2533,-90.6633,1.0,29.21,2 
LUMCON,ioos:station:LUMCON:101:1,2017-08-01T16:45:00Z,29.2533,-90.6633,1.0,29.28,2 
LUMCON,ioos:station:LUMCON:101:1,2017-08-01T17:00:00Z,29.2533,-90.6633,1.0,29.38,2 
LUMCON,ioos:station:LUMCON:101:1,2017-08-01T17:15:00Z,29.2533,-90.6633,1.0,29.51,2 
LUMCON,ioos:station:LUMCON:101:1,2017-08-01T17:30:00Z,29.2533,-90.6633,1.0,29.66,2 
LUMCON,ioos:station:LUMCON:101:1,2017-08-01T17:45:00Z,29.2533,-90.6633,1.0,29.74,2 
LUMCON,ioos:station:LUMCON:101:1,2017-08-01T18:00:00Z,29.2533,-90.6633,1.0,29.84,2 
LUMCON,ioos:station:LUMCON:101:1,2017-08-01T18:15:00Z,29.2533,-90.6633,1.0,29.97,2 
LUMCON,ioos:station:LUMCON:101:1,2017-08-01T18:30:00Z,29.2533,-90.6633,1.0,30.1,2 
LUMCON,ioos:station:LUMCON:101:1,2017-08-01T19:15:00Z,29.2533,-90.6633,1.0,30.47,2 
LUMCON,ioos:station:LUMCON:101:1,2017-08-01T19:30:00Z,29.2533,-90.6633,1.0,30.59,2 
LUMCON,ioos:station:LUMCON:101:1,2017-08-01T19:45:00Z,29.2533,-90.6633,1.0,30.72,2 
LUMCON,ioos:station:LUMCON:101:1,2017-08-01T20:00:00Z,29.2533,-90.6633,1.0,30.82,2 
LUMCON,ioos:station:LUMCON:101:1,2017-08-01T20:15:00Z,29.2533,-90.6633,1.0,30.95,2 
LUMCON,ioos:station:LUMCON:101:1,2017-08-01T20:30:00Z,29.2533,-90.6633,1.0,31.06,2 
LUMCON,ioos:station:LUMCON:101:1,2017-08-01T20:45:00Z,29.2533,-90.6633,1.0,31.15,2 
LUMCON,ioos:station:LUMCON:101:1,2017-08-01T21:00:00Z,29.2533,-90.6633,1.0,31.24,2 
LUMCON,ioos:station:LUMCON:101:1,2017-08-01T21:15:00Z,29.2533,-90.6633,1.0,31.32,2 
LUMCON,ioos:station:LUMCON:101:1,2017-08-01T21:30:00Z,29.2533,-90.6633,1.0,31.39,2 
LUMCON,ioos:station:LUMCON:101:1,2017-08-01T21:45:00Z,29.2533,-90.6633,1.0,31.46,2 
LUMCON,ioos:station:LUMCON:101:1,2017-08-01T22:00:00Z,29.2533,-90.6633,1.0,31.49,2 
LUMCON,ioos:station:LUMCON:101:1,2017-08-01T22:15:00Z,29.2533,-90.6633,1.0,31.51,2 
LUMCON,ioos:station:LUMCON:101:1,2017-08-01T22:30:00Z,29.2533,-90.6633,1.0,31.53,2 
LUMCON,ioos:station:LUMCON:101:1,2017-08-01T22:45:00Z,29.2533,-90.6633,1.0,31.47,2 
LUMCON,ioos:station:LUMCON:101:1,2017-08-01T23:00:00Z,29.2533,-90.6633,1.0,31.48,2 
LUMCON,ioos:station:LUMCON:101:1,2017-08-01T23:15:00Z,29.2533,-90.6633,1.0,31.46,2 
LUMCON,ioos:station:LUMCON:101:1,2017-08-01T23:30:00Z,29.2533,-90.6633,1.0,31.45,2 
LUMCON,ioos:station:LUMCON:101:1,2017-08-01T23:45:00Z,29.2533,-90.6633,1.0,31.39,2 
LUMCON,ioos:station:LUMCON:101:1,2017-08-02T00:00:00Z,29.2533,-90.6633,1.0,31.35,2 
LUMCON,ioos:station:LUMCON:101:1,2017-08-02T00:15:00Z,29.2533,-90.6633,1.0,31.27,2 
LUMCON,ioos:station:LUMCON:101:1,2017-08-02T00:30:00Z,29.2533,-90.6633,1.0,31.2,2 
LUMCON,ioos:station:LUMCON:101:1,2017-08-02T00:45:00Z,29.2533,-90.6633,1.0,31.17,2 
LUMCON,ioos:station:LUMCON:101:1,2017-08-02T01:00:00Z,29.2533,-90.6633,1.0,31.11,2 
LUMCON,ioos:station:LUMCON:101:1,2017-08-02T01:15:00Z,29.2533,-90.6633,1.0,31.07,2 
LUMCON,ioos:station:LUMCON:101:1,2017-08-02T01:30:00Z,29.2533,-90.6633,1.0,31.06,2 
LUMCON,ioos:station:LUMCON:101:1,2017-08-02T01:45:00Z,29.2533,-90.6633,1.0,31.19,2 
LUMCON,ioos:station:LUMCON:101:1,2017-08-02T02:00:00Z,29.2533,-90.6633,1.0,31.22,2 
LUMCON,ioos:station:LUMCON:101:1,2017-08-02T02:15:00Z,29.2533,-90.6633,1.0,31.15,2 
LUMCON,ioos:station:LUMCON:101:1,2017-08-02T02:30:00Z,29.2533,-90.6633,1.0,31.11,2 
LUMCON,ioos:station:LUMCON:101:1,2017-08-02T02:45:00Z,29.2533,-90.6633,1.0,31.07,2 
LUMCON,ioos:station:LUMCON:101:1,2017-08-02T03:00:00Z,29.2533,-90.6633,1.0,30.94,2 
LUMCON,ioos:station:LUMCON:101:1,2017-08-02T03:15:00Z,29.2533,-90.6633,1.0,30.79,2 
LUMCON,ioos:station:LUMCON:101:1,2017-08-02T03:30:00Z,29.2533,-90.6633,1.0,30.78,2 
LUMCON,ioos:station:LUMCON:101:1,2017-08-02T03:45:00Z,29.2533,-90.6633,1.0,30.69,2 
LUMCON,ioos:station:LUMCON:101:1,2017-08-02T04:00:00Z,29.2533,-90.6633,1.0,30.67,2 
LUMCON,ioos:station:LUMCON:101:1,2017-08-02T04:15:00Z,29.2533,-90.6633,1.0,30.66,2 
LUMCON,ioos:station:LUMCON:101:1,2017-08-02T04:30:00Z,29.2533,-90.6633,1.0,30.58,2 
LUMCON,ioos:station:LUMCON:101:1,2017-08-02T04:45:00Z,29.2533,-90.6633,1.0,30.5,2 
LUMCON,ioos:station:LUMCON:101:1,2017-08-02T05:00:00Z,29.2533,-90.6633,1.0,30.41,2 
LUMCON,ioos:station:LUMCON:101:1,2017-08-02T05:15:00Z,29.2533,-90.6633,1.0,30.39,2 
LUMCON,ioos:station:LUMCON:101:1,2017-08-02T05:30:00Z,29.2533,-90.6633,1.0,30.31,2 
LUMCON,ioos:station:LUMCON:101:1,2017-08-02T05:45:00Z,29.2533,-90.6633,1.0,30.11,2 
LUMCON,ioos:station:LUMCON:101:1,2017-08-02T06:00:00Z,29.2533,-90.6633,1.0,30.05,2 
LUMCON,ioos:station:LUMCON:101:1,2017-08-02T06:15:00Z,29.2533,-90.6633,1.0,29.96,2 
LUMCON,ioos:station:LUMCON:101:1,2017-08-02T06:30:00Z,29.2533,-90.6633,1.0,29.87,2 
LUMCON,ioos:station:LUMCON:101:1,2017-08-02T06:45:00Z,29.2533,-90.6633,1.0,29.83,2 
LUMCON,ioos:station:LUMCON:101:1,2017-08-02T07:00:00Z,29.2533,-90.6633,1.0,29.75,2 
LUMCON,ioos:station:LUMCON:101:1,2017-08-02T07:15:00Z,29.2533,-90.6633,1.0,29.69,2 
LUMCON,ioos:station:LUMCON:101:1,2017-08-02T07:30:00Z,29.2533,-90.6633,1.0,29.62,2 
LUMCON,ioos:station:LUMCON:101:1,2017-08-02T07:45:00Z,29.2533,-90.6633,1.0,29.51,2 
LUMCON,ioos:station:LUMCON:101:1,2017-08-02T08:00:00Z,29.2533,-90.6633,1.0,29.44,2 
LUMCON,ioos:station:LUMCON:101:1,2017-08-02T08:15:00Z,29.2533,-90.6633,1.0,29.39,2 
LUMCON,ioos:station:LUMCON:101:1,2017-08-02T08:30:00Z,29.2533,-90.6633,1.0,29.31,2 
LUMCON,ioos:station:LUMCON:101:1,2017-08-02T08:45:00Z,29.2533,-90.6633,1.0,29.25,2 
LUMCON,ioos:station:LUMCON:101:1,2017-08-02T09:00:00Z,29.2533,-90.6633,1.0,29.2,2 
LUMCON,ioos:station:LUMCON:101:1,2017-08-02T09:15:00Z,29.2533,-90.6633,1.0,29.16,2 
LUMCON,ioos:station:LUMCON:101:1,2017-08-02T09:30:00Z,29.2533,-90.6633,1.0,29.1,2 
LUMCON,ioos:station:LUMCON:101:1,2017-08-02T09:45:00Z,29.2533,-90.6633,1.0,29.06,2 
LUMCON,ioos:station:LUMCON:101:1,2017-08-02T10:00:00Z,29.2533,-90.6633,1.0,29.03,2 
LUMCON,ioos:station:LUMCON:101:1,2017-08-02T10:15:00Z,29.2533,-90.6633,1.0,28.99,2 
LUMCON,ioos:station:LUMCON:101:1,2017-08-02T10:30:00Z,29.2533,-90.6633,1.0,28.97,2 
LUMCON,ioos:station:LUMCON:101:1,2017-08-02T10:45:00Z,29.2533,-90.6633,1.0,28.93,2 
LUMCON,ioos:station:LUMCON:101:1,2017-08-02T11:00:00Z,29.2533,-90.6633,1.0,28.9,2 
LUMCON,ioos:station:LUMCON:101:1,2017-08-02T11:15:00Z,29.2533,-90.6633,1.0,28.87,2 
LUMCON,ioos:station:LUMCON:101:1,2017-08-02T11:30:00Z,29.2533,-90.6633,1.0,28.85,2 
LUMCON,ioos:station:LUMCON:101:1,2017-08-02T11:45:00Z,29.2533,-90.6633,1.0,28.84,2 
LUMCON,ioos:station:LUMCON:101:1,2017-08-02T12:00:00Z,29.2533,-90.6633,1.0,28.84,2 
LUMCON,ioos:station:LUMCON:101:1,2017-08-02T12:15:00Z,29.2533,-90.6633,1.0,28.84,2 
LUMCON,ioos:station:LUMCON:101:1,2017-08-02T12:30:00Z,29.2533,-90.6633,1.0,28.83,2 
LUMCON,ioos:station:LUMCON:101:1,2017-08-02T12:45:00Z,29.2533,-90.6633,1.0,28.81,2 
LUMCON,ioos:station:LUMCON:101:1,2017-08-02T13:00:00Z,29.2533,-90.6633,1.0,28.81,2 
LUMCON,ioos:station:LUMCON:101:1,2017-08-02T13:15:00Z,29.2533,-90.6633,1.0,28.79,2 
LUMCON,ioos:station:LUMCON:101:1,2017-08-02T13:30:00Z,29.2533,-90.6633,1.0,28.76,2 
LUMCON,ioos:station:LUMCON:101:1,2017-08-02T13:45:00Z,29.2533,-90.6633,1.0,28.75,2 
LUMCON,ioos:station:LUMCON:101:1,2017-08-02T14:00:00Z,29.2533,-90.6633,1.0,28.74,2 
LUMCON,ioos:station:LUMCON:101:1,2017-08-02T14:15:00Z,29.2533,-90.6633,1.0,28.75,2 
LUMCON,ioos:station:LUMCON:101:1,2017-08-02T14:30:00Z,29.2533,-90.6633,1.0,28.76,2 
LUMCON,ioos:station:LUMCON:101:1,2017-08-02T14:45:00Z,29.2533,-90.6633,1.0,28.77,2 
LUMCON,ioos:station:LUMCON:101:1,2017-08-02T15:00:00Z,29.2533,-90.6633,1.0,28.77,2 
LUMCON,ioos:station:LUMCON:101:1,2017-08-02T15:15:00Z,29.2533,-90.6633,1.0,28.78,2 
LUMCON,ioos:station:LUMCON:101:1,2017-08-02T15:30:00Z,29.2533,-90.6633,1.0,28.79,2 
LUMCON,ioos:station:LUMCON:101:1,2017-08-02T15:45:00Z,29.2533,-90.6633,1.0,28.78,2 
LUMCON,ioos:station:LUMCON:101:1,2017-08-02T16:00:00Z,29.2533,-90.6633,1.0,28.89,2 
LUMCON,ioos:station:LUMCON:101:1,2017-08-02T16:15:00Z,29.2533,-90.6633,1.0,29.1,2 
LUMCON,ioos:station:LUMCON:101:1,2017-08-02T16:30:00Z,29.2533,-90.6633,1.0,29.19,2 
LUMCON,ioos:station:LUMCON:101:1,2017-08-02T16:45:00Z,29.2533,-90.6633,1.0,29.27,2 
LUMCON,ioos:station:LUMCON:101:1,2017-08-02T17:00:00Z,29.2533,-90.6633,1.0,29.37,2 
LUMCON,ioos:station:LUMCON:101:1,2017-08-02T17:15:00Z,29.2533,-90.6633,1.0,29.32,2 
LUMCON,ioos:station:LUMCON:101:1,2017-08-02T17:30:00Z,29.2533,-90.6633,1.0,29.41,2 
LUMCON,ioos:station:LUMCON:101:1,2017-08-02T17:45:00Z,29.2533,-90.6633,1.0,29.49,2 
LUMCON,ioos:station:LUMCON:101:1,2017-08-02T18:00:00Z,29.2533,-90.6633,1.0,29.58,2 
LUMCON,ioos:station:LUMCON:101:1,2017-08-02T18:15:00Z,29.2533,-90.6633,1.0,29.72,2 
LUMCON,ioos:station:LUMCON:101:1,2017-08-02T18:30:00Z,29.2533,-90.6633,1.0,29.85,2 
LUMCON,ioos:station:LUMCON:101:1,2017-08-02T18:45:00Z,29.2533,-90.6633,1.0,29.93,2 
LUMCON,ioos:station:LUMCON:101:1,2017-08-02T19:00:00Z,29.2533,-90.6633,1.0,29.96,2 
LUMCON,ioos:station:LUMCON:101:1,2017-08-02T19:15:00Z,29.2533,-90.6633,1.0,29.93,2 
LUMCON,ioos:station:LUMCON:101:1,2017-08-02T19:30:00Z,29.2533,-90.6633,1.0,29.78,2 
LUMCON,ioos:station:LUMCON:101:1,2017-08-02T19:45:00Z,29.2533,-90.6633,1.0,29.5,2 
LUMCON,ioos:station:LUMCON:101:1,2017-08-02T20:00:00Z,29.2533,-90.6633,1.0,29.43,2 
LUMCON,ioos:station:LUMCON:101:1,2017-08-02T20:15:00Z,29.2533,-90.6633,1.0,29.4,2 
LUMCON,ioos:station:LUMCON:101:1,2017-08-02T20:30:00Z,29.2533,-90.6633,1.0,29.41,2 
LUMCON,ioos:station:LUMCON:101:1,2017-08-02T20:45:00Z,29.2533,-90.6633,1.0,29.44,2 
LUMCON,ioos:station:LUMCON:101:1,2017-08-02T21:00:00Z,29.2533,-90.6633,1.0,29.46,2 
LUMCON,ioos:station:LUMCON:101:1,2017-08-02T21:15:00Z,29.2533,-90.6633,1.0,29.47,2 
LUMCON,ioos:station:LUMCON:101:1,2017-08-02T21:30:00Z,29.2533,-90.6633,1.0,29.46,2 
LUMCON,ioos:station:LUMCON:101:1,2017-08-02T21:45:00Z,29.2533,-90.6633,1.0,29.42,2 
LUMCON,ioos:station:LUMCON:101:1,2017-08-02T22:00:00Z,29.2533,-90.6633,1.0,29.38,2 
LUMCON,ioos:station:LUMCON:101:1,2017-08-02T22:15:00Z,29.2533,-90.6633,1.0,29.3,2 
LUMCON,ioos:station:LUMCON:101:1,2017-08-02T22:30:00Z,29.2533,-90.6633,1.0,29.25,2 
LUMCON,ioos:station:LUMCON:101:1,2017-08-02T22:45:00Z,29.2533,-90.6633,1.0,29.18,2 
LUMCON,ioos:station:LUMCON:101:1,2017-08-02T23:00:00Z,29.2533,-90.6633,1.0,29.16,2 
LUMCON,ioos:station:LUMCON:101:1,2017-08-02T23:15:00Z,29.2533,-90.6633,1.0,29.12,2 
LUMCON,ioos:station:LUMCON:101:1,2017-08-02T23:30:00Z,29.2533,-90.6633,1.0,29.06,2 
LUMCON,ioos:station:LUMCON:101:1,2017-08-02T23:45:00Z,29.2533,-90.6633,1.0,29.01,2 
LUMCON,ioos:station:LUMCON:101:1,2017-08-03T00:00:00Z,29.2533,-90.6633,1.0,28.96,2 
LUMCON,ioos:station:LUMCON:101:1,2017-08-03T00:15:00Z,29.2533,-90.6633,1.0,28.91,2 
LUMCON,ioos:station:LUMCON:101:1,2017-08-03T00:30:00Z,29.2533,-90.6633,1.0,28.87,2 
LUMCON,ioos:station:LUMCON:101:1,2017-08-03T00:45:00Z,29.2533,-90.6633,1.0,28.83,2 
LUMCON,ioos:station:LUMCON:101:1,2017-08-03T01:00:00Z,29.2533,-90.6633,1.0,28.79,2 
LUMCON,ioos:station:LUMCON:101:1,2017-08-03T01:15:00Z,29.2533,-90.6633,1.0,28.76,2 
LUMCON,ioos:station:LUMCON:101:1,2017-08-03T01:30:00Z,29.2533,-90.6633,1.0,28.75,2 
LUMCON,ioos:station:LUMCON:101:1,2017-08-03T01:45:00Z,29.2533,-90.6633,1.0,28.74,2 
LUMCON,ioos:station:LUMCON:101:1,2017-08-03T02:00:00Z,29.2533,-90.6633,1.0,29.15,2 
LUMCON,ioos:station:LUMCON:101:1,2017-08-03T02:15:00Z,29.2533,-90.6633,1.0,29.2,2 
LUMCON,ioos:station:LUMCON:101:1,2017-08-03T02:30:00Z,29.2533,-90.6633,1.0,29.02,2 
LUMCON,ioos:station:LUMCON:101:1,2017-08-03T02:45:00Z,29.2533,-90.6633,1.0,29.05,2 
LUMCON,ioos:station:LUMCON:101:1,2017-08-03T03:00:00Z,29.2533,-90.6633,1.0,29.01,2 
LUMCON,ioos:station:LUMCON:101:1,2017-08-03T03:15:00Z,29.2533,-90.6633,1.0,28.97,2 
LUMCON,ioos:station:LUMCON:101:1,2017-08-03T03:30:00Z,29.2533,-90.6633,1.0,28.95,2 
LUMCON,ioos:station:LUMCON:101:1,2017-08-03T03:45:00Z,29.2533,-90.6633,1.0,29.0,2 
LUMCON,ioos:station:LUMCON:101:1,2017-08-03T04:00:00Z,29.2533,-90.6633,1.0,28.85,2 
LUMCON,ioos:station:LUMCON:101:1,2017-08-03T04:15:00Z,29.2533,-90.6633,1.0,28.78,2 
LUMCON,ioos:station:LUMCON:101:1,2017-08-03T05:15:00Z,29.2533,-90.6633,1.0,28.46,2 
LUMCON,ioos:station:LUMCON:101:1,2017-08-03T05:30:00Z,29.2533,-90.6633,1.0,28.4,2 
LUMCON,ioos:station:LUMCON:101:1,2017-08-03T05:45:00Z,29.2533,-90.6633,1.0,28.35,2 
LUMCON,ioos:station:LUMCON:101:1,2017-08-03T06:00:00Z,29.2533,-90.6633,1.0,28.31,2 
LUMCON,ioos:station:LUMCON:101:1,2017-08-03T06:15:00Z,29.2533,-90.6633,1.0,28.27,2 
LUMCON,ioos:station:LUMCON:101:1,2017-08-03T06:30:00Z,29.2533,-90.6633,1.0,28.24,2 
LUMCON,ioos:station:LUMCON:101:1,2017-08-03T06:45:00Z,29.2533,-90.6633,1.0,28.2,2 
LUMCON,ioos:station:LUMCON:101:1,2017-08-03T07:00:00Z,29.2533,-90.6633,1.0,28.18,2 
LUMCON,ioos:station:LUMCON:101:1,2017-08-03T07:15:00Z,29.2533,-90.6633,1.0,28.15,2 
LUMCON,ioos:station:LUMCON:101:1,2017-08-03T07:30:00Z,29.2533,-90.6633,1.0,28.14,2 
LUMCON,ioos:station:LUMCON:101:1,2017-08-03T07:45:00Z,29.2533,-90.6633,1.0,28.12,2 
LUMCON,ioos:station:LUMCON:101:1,2017-08-03T08:00:00Z,29.2533,-90.6633,1.0,28.11,2 
LUMCON,ioos:station:LUMCON:101:1,2017-08-03T08:15:00Z,29.2533,-90.6633,1.0,28.1,2 
LUMCON,ioos:station:LUMCON:101:1,2017-08-03T08:30:00Z,29.2533,-90.6633,1.0,28.09,2 
LUMCON,ioos:station:LUMCON:101:1,2017-08-03T08:45:00Z,29.2533,-90.6633,1.0,28.09,2 
LUMCON,ioos:station:LUMCON:101:1,2017-08-03T09:00:00Z,29.2533,-90.6633,1.0,28.08,2 
LUMCON,ioos:station:LUMCON:101:1,2017-08-03T09:15:00Z,29.2533,-90.6633,1.0,28.08,2 
LUMCON,ioos:station:LUMCON:101:1,2017-08-03T09:30:00Z,29.2533,-90.6633,1.0,28.06,2 
LUMCON,ioos:station:LUMCON:101:1,2017-08-03T09:45:00Z,29.2533,-90.6633,1.0,28.05,2 
LUMCON,ioos:station:LUMCON:101:1,2017-08-03T10:00:00Z,29.2533,-90.6633,1.0,28.06,2 
LUMCON,ioos:station:LUMCON:101:1,2017-08-03T10:15:00Z,29.2533,-90.6633,1.0,28.04,2 
LUMCON,ioos:station:LUMCON:101:1,2017-08-03T10:30:00Z,29.2533,-90.6633,1.0,28.03,2 
LUMCON,ioos:station:LUMCON:101:1,2017-08-03T10:45:00Z,29.2533,-90.6633,1.0,28.03,2 
LUMCON,ioos:station:LUMCON:101:1,2017-08-03T11:00:00Z,29.2533,-90.6633,1.0,28.01,2 
LUMCON,ioos:station:LUMCON:101:1,2017-08-03T11:15:00Z,29.2533,-90.6633,1.0,28.01,2 
LUMCON,ioos:station:LUMCON:101:1,2017-08-03T11:30:00Z,29.2533,-90.6633,1.0,28.01,2 
LUMCON,ioos:station:LUMCON:101:1,2017-08-03T11:45:00Z,29.2533,-90.6633,1.0,28.0,2 
LUMCON,ioos:station:LUMCON:101:1,2017-08-03T12:00:00Z,29.2533,-90.6633,1.0,27.98,2 
LUMCON,ioos:station:LUMCON:101:1,2017-08-03T12:15:00Z,29.2533,-90.6633,1.0,27.99,2 
LUMCON,ioos:station:LUMCON:101:1,2017-08-03T12:30:00Z,29.2533,-90.6633,1.0,27.98,2 
LUMCON,ioos:station:LUMCON:101:1,2017-08-03T12:45:00Z,29.2533,-90.6633,1.0,27.97,2 
LUMCON,ioos:station:LUMCON:101:1,2017-08-03T13:00:00Z,29.2533,-90.6633,1.0,27.88,2 
LUMCON,ioos:station:LUMCON:101:1,2017-08-03T13:15:00Z,29.2533,-90.6633,1.0,27.82,2 
LUMCON,ioos:station:LUMCON:101:1,2017-08-03T13:30:00Z,29.2533,-90.6633,1.0,27.76,2 
LUMCON,ioos:station:LUMCON:101:1,2017-08-03T13:45:00Z,29.2533,-90.6633,1.0,27.73,2 
LUMCON,ioos:station:LUMCON:101:1,2017-08-03T14:00:00Z,29.2533,-90.6633,1.0,27.67,2 
LUMCON,ioos:station:LUMCON:101:1,2017-08-03T14:15:00Z,29.2533,-90.6633,1.0,27.61,2 
LUMCON,ioos:station:LUMCON:101:1,2017-08-03T14:30:00Z,29.2533,-90.6633,1.0,27.57,2 
LUMCON,ioos:station:LUMCON:101:1,2017-08-03T14:45:00Z,29.2533,-90.6633,1.0,27.53,2 
LUMCON,ioos:station:LUMCON:101:1,2017-08-03T15:00:00Z,29.2533,-90.6633,1.0,27.48,2 
LUMCON,ioos:station:LUMCON:101:1,2017-08-03T15:15:00Z,29.2533,-90.6633,1.0,27.43,2 
LUMCON,ioos:station:LUMCON:101:1,2017-08-03T15:30:00Z,29.2533,-90.6633,1.0,27.42,2 
LUMCON,ioos:station:LUMCON:101:1,2017-08-03T15:45:00Z,29.2533,-90.6633,1.0,27.37,2 
LUMCON,ioos:station:LUMCON:101:1,2017-08-03T16:00:00Z,29.2533,-90.6633,1.0,27.35,2 
LUMCON,ioos:station:LUMCON:101:1,2017-08-03T16:15:00Z,29.2533,-90.6633,1.0,27.35,2 
LUMCON,ioos:station:LUMCON:101:1,2017-08-03T16:30:00Z,29.2533,-90.6633,1.0,27.33,2 
LUMCON,ioos:station:LUMCON:101:1,2017-08-04T01:00:00Z,29.2533,-90.6633,1.0,28.48,2 
LUMCON,ioos:station:LUMCON:101:1,2017-08-04T01:15:00Z,29.2533,-90.6633,1.0,28.47,2 
LUMCON,ioos:station:LUMCON:101:1,2017-08-04T01:30:00Z,29.2533,-90.6633,1.0,28.46,2 
LUMCON,ioos:station:LUMCON:101:1,2017-08-04T01:45:00Z,29.2533,-90.6633,1.0,28.43,2 
LUMCON,ioos:station:LUMCON:101:1,2017-08-04T02:00:00Z,29.2533,-90.6633,1.0,28.39,2 
LUMCON,ioos:station:LUMCON:101:1,2017-08-04T02:15:00Z,29.2533,-90.6633,1.0,28.35,2 
LUMCON,ioos:station:LUMCON:101:1,2017-08-04T02:30:00Z,29.2533,-90.6633,1.0,28.33,2 
LUMCON,ioos:station:LUMCON:101:1,2017-08-04T02:45:00Z,29.2533,-90.6633,1.0,28.32,2 
LUMCON,ioos:station:LUMCON:101:1,2017-08-04T03:00:00Z,29.2533,-90.6633,1.0,28.29,2 
LUMCON,ioos:station:LUMCON:101:1,2017-08-04T03:15:00Z,29.2533,-90.6633,1.0,28.27,2 
LUMCON,ioos:station:LUMCON:101:1,2017-08-04T03:30:00Z,29.2533,-90.6633,1.0,28.29,2 
LUMCON,ioos:station:LUMCON:101:1,2017-08-04T03:45:00Z,29.2533,-90.6633,1.0,28.27,2 
LUMCON,ioos:station:LUMCON:101:1,2017-08-04T04:00:00Z,29.2533,-90.6633,1.0,28.32,2 
LUMCON,ioos:station:LUMCON:101:1,2017-08-04T04:15:00Z,29.2533,-90.6633,1.0,28.31,2 
LUMCON,ioos:station:LUMCON:101:1,2017-08-04T04:30:00Z,29.2533,-90.6633,1.0,28.29,2 
LUMCON,ioos:station:LUMCON:101:1,2017-08-04T04:45:00Z,29.2533,-90.6633,1.0,28.26,2 
LUMCON,ioos:station:LUMCON:101:1,2017-08-04T05:00:00Z,29.2533,-90.6633,1.0,28.25,2 
LUMCON,ioos:station:LUMCON:101:1,2017-08-04T05:15:00Z,29.2533,-90.6633,1.0,28.21,2 
LUMCON,ioos:station:LUMCON:101:1,2017-08-04T05:30:00Z,29.2533,-90.6633,1.0,28.19,2 
LUMCON,ioos:station:LUMCON:101:1,2017-08-04T05:45:00Z,29.2533,-90.6633,1.0,28.16,2 
LUMCON,ioos:station:LUMCON:101:1,2017-08-04T06:00:00Z,29.2533,-90.6633,1.0,28.13,2 
LUMCON,ioos:station:LUMCON:101:1,2017-08-04T06:15:00Z,29.2533,-90.6633,1.0,28.07,2 
LUMCON,ioos:station:LUMCON:101:1,2017-08-04T06:30:00Z,29.2533,-90.6633,1.0,28.03,2 
LUMCON,ioos:station:LUMCON:101:1,2017-08-04T06:45:00Z,29.2533,-90.6633,1.0,27.99,2 
LUMCON,ioos:station:LUMCON:101:1,2017-08-04T07:00:00Z,29.2533,-90.6633,1.0,27.96,2 
LUMCON,ioos:station:LUMCON:101:1,2017-08-04T07:15:00Z,29.2533,-90.6633,1.0,27.92,2 
LUMCON,ioos:station:LUMCON:101:1,2017-08-04T07:30:00Z,29.2533,-90.6633,1.0,27.86,2 
LUMCON,ioos:station:LUMCON:101:1,2017-08-04T07:45:00Z,29.2533,-90.6633,1.0,27.81,2 
LUMCON,ioos:station:LUMCON:101:1,2017-08-04T08:00:00Z,29.2533,-90.6633,1.0,27.78,2 
LUMCON,ioos:station:LUMCON:101:1,2017-08-04T08:15:00Z,29.2533,-90.6633,1.0,27.75,2 
LUMCON,ioos:station:LUMCON:101:1,2017-08-04T08:30:00Z,29.2533,-90.6633,1.0,27.71,2 